Weather in Golovinka

Russia / Moscow Oblast     55°28′10″N   36°21′44″E
temp.,
°C
wind,
m/s
gust,
m/s
humid.,
%
clouds,
%
prec.,
mm/h
press.,
hPa
HPBL,
m
13 may, thu
thu1300:00+9sse499669 0.9 1018503
03:00+7se249539 0.9 1019129
06:00+7ese279651 0.0 1019204
09:00+12ese487592 0.0 1018603
12:00+16ese61057100 0.0 10161639
15:00+11ese41194100 1.8 1015636
18:00+13se498317 0.4 1014927
21:00+9se2798100 1.0 1014168
14 may, fri
fri1400:00+8sse2797100 0.0 1015143
03:00+7sse26975 0.0 1016123
06:00+8se269674 0.0 1016171
09:00+13se367986 0.0 1016442
12:00+19sse4753100 0.0 10151454
15:00+20se465121 0.0 10131429
18:00+14se1396100 7.4 101295
21:00+13e3798100 23.1 1010187
15 may, sat
sat1500:00+14se4119895 1.1 1009307
03:00+12se3998100 1.1 1008206
06:00+13sse3897100 0.0 1008212
09:00+17sse3784100 0.0 1008463
12:00+20s586799 0.3 10081370
15:00+20ssw69606 0.9 10071807
18:00+16ssw5108714 2.0 1008968
21:00+13ssw5139514 2.7 1010633
16 may, sun
sun1600:00+12ssw413965 0.0 1011510
03:00+11s3109853 0.0 1012274
06:00+11s389710 0.0 1013241
09:00+16ssw46797 0.0 1013638
12:00+19ssw466138 0.4 10131482
15:00+20sw455698 0.8 10131700
18:00+19sw25671 0.1 10131097
21:00+14wsw11901 0.1 101411
17 may, mon
mon1700:00+12se1192100 0.0 101510
03:00+12se229393 0.0 101627
06:00+13ese2591100 0.0 1015134
09:00+19ese3668100 0.0 1015447
12:00+23ese465551 0.0 10131220
15:00+25ese685591 0.0 10111631
18:00+23se51072100 0.5 1010679
21:00+18se4148484 1.1 1009446